Retour au catalogue

STARLINK-31135

ActifCommunicationsVLEO
NORAD 58771·PAYLOAD·🇺🇸 United States

Lancé Jan 14, 2024 depuis Vandenberg Space Force Base

Loading…

Prochains Passages (prochaines 24 heures)

TLE

FraisSource: CelesTrak SupGP

Époque: Sep 15, 2026, 02:22 UTC

1 58771C 24011G   26258.09909722 -.00091132  00000+0 -26923-2 0  2586
2 58771  53.1582 210.6160 0001321  88.5251   1.8502 15.34439246    14

Suivez STARLINK-31135 en temps réel avec AllMySat

Download on the App Store